[[{"header":{"parameterUnit":"m.s-1","parameterCategory":1,"la1":30.2991,"la2":30.254,"lo1":-89.0895,"lo2":-89.0444,"dy":0.0017,"dx":0.0017,"nx":28,"ny":28,"refTime":"2024-06-06T09:00:00:Z","depth":0,"parameterNumber":2,"parameterNumberName":"U-component_of_WINDS"},"data":[0,0,0,0,0,0,0,0,0,0,0,0,0,0,0,0,0,0,0,0,0,0,0,0,0,0,0,0,0,0,0,0,0,0,0,0,0,0,0,0,0,0,0,0,0,0,0,0,0,0,0,0,0,0,0,0,0,0,1.8864,1.8864,0,1.889,1.889,1.889,1.8835,1.8833,1.8831,1.8829,1.8858,1.8861,1.8863,0,0,0,0,0,0,0,0,0,0,0,0,0,1.8766,1.8768,1.8864,1.8864,1.8864,1.889,1.889,1.889,1.8835,1.8833,1.8831,1.8829,1.8857,1.886,1.8863,0,0,0,0,0,0,0,0,0,0,0,0,0,1.8802,1.8769,1.8863,1.884,1.8838,1.889,1.889,1.8891,1.8836,1.8833,1.883,1.8828,1.8857,1.886,1.8864,1.8941,0,0,1.8875,1.8877,0,0,0,0,0,0,0,0,1.88,1.8806,1.8843,1.8841,1.8839,1.8856,1.8866,1.8907,1.8836,1.8836,1.8829,1.8826,1.886,1.8863,1.8874,1.8942,1.8943,1.8875,1.8878,1.8879,1.888,0,0,0,0,0,0,0,1.8798,1.8804,1.8874,1.8843,1.8841,1.8828,1.883,1.8874,1.8863,1.8836,1.8832,1.8836,1.8858,1.8871,1.8874,1.8944,1.8875,1.8878,1.8881,1.8882,1.9074,1.9077,0,0,0,0,0,0,1.8798,1.8803,1.8873,1.8875,1.8813,1.8832,1.8834,1.8854,1.8862,1.8861,1.8838,1.8833,1.8866,1.887,1.8875,1.8964,1.8879,1.8883,1.8885,1.9071,1.9075,1.9078,0,0,0,0,0,0,1.8796,1.8805,1.8872,1.8838,1.8845,1.8836,1.8859,1.8855,1.8867,1.8864,1.8862,1.8853,1.8864,1.887,1.8924,1.8964,1.8884,1.8888,1.9068,1.9072,1.9076,1.9143,0,0,0,0,0,0,1.8794,1.8805,1.8834,1.8839,1.8847,1.892,1.8861,1.8858,1.8874,1.8868,1.8877,1.8876,1.8862,1.8919,1.8928,1.8968,1.889,1.9064,1.907,1.9075,1.9137,1.9149,1.916,0,0,0,0,0,1.8791,1.8852,1.8835,1.8844,1.8883,1.8923,1.8928,1.891,1.8877,1.8906,1.8904,1.8876,1.8959,1.8925,1.8935,1.8976,1.9062,1.9068,1.9075,1.9132,1.9147,1.9159,0,0,0,0,0,0,1.8852,1.8852,1.8834,1.8899,1.8911,1.8913,1.8949,1.8926,1.8949,1.8942,1.892,1.8922,1.8981,1.8984,1.8947,1.905,1.9005,1.9013,1.9045,1.9059,1.907,1.9067,1.8893,0,0,0,0,0,1.8874,1.8906,1.8904,1.8962,1.8969,1.8958,1.8975,1.896,1.8972,1.8977,1.8979,1.8992,1.9021,1.9041,1.9067,1.9138,1.9139,1.9172,1.9183,1.9192,1.9199,1.9235,1.9249,1.9099,1.9099,1.9099,0,0,1.8918,1.8922,1.8943,1.8974,1.8982,1.9015,1.8963,1.9001,1.9025,1.8983,1.9034,1.9036,1.9049,1.9111,1.9139,1.9116,1.9241,1.92,1.9208,1.921,1.9243,1.9257,1.927,1.9104,1.9103,1.9102,0,0,1.9014,1.9022,1.9069,1.9078,1.909,1.9083,1.9094,1.91,1.9099,1.915,1.9118,1.9148,1.9199,1.9209,1.9221,1.9321,1.9296,1.9331,1.9388,1.9423,1.9435,1.9445,1.9479,1.9492,1.9339,1.9339,1.9339,0,1.9067,1.9116,1.9097,1.9136,1.915,1.9114,1.9161,1.9171,1.9192,1.9203,1.9177,1.9239,1.9245,1.9309,1.9333,1.9345,1.9356,1.9329,1.9435,1.9445,1.9454,1.9486,1.95,1.9343,1.9342,1.9342,1.9342,0,1.918,1.9214,1.9252,1.9271,1.929,1.9334,1.9321,1.9342,1.9326,1.9321,1.9373,1.9379,1.9406,1.942,1.9406,1.9481,1.9466,1.9439,1.9392,1.9473,1.9503,1.9515,1.9349,1.9347,1.9346,1.9345,0,0,1.9315,1.9323,1.9337,1.9345,1.9356,1.9382,1.9424,1.9449,1.9467,1.9484,1.9517,1.9561,1.9535,1.9548,1.9535,1.9566,1.9643,1.9534,1.9534,1.9552,1.9725,1.9744,1.9758,1.9627,1.9629,1.9631,1.9723,0,1.9408,1.948,1.9463,1.9534,1.9564,1.953,1.9567,1.9578,1.9575,1.9601,1.9598,1.9628,1.9592,1.96,1.963,1.9627,1.9677,1.9621,1.9657,1.9659,1.9652,1.9774,1.9795,1.9881,1.9734,1.9736,1.9738,0,1.9527,1.9546,1.9619,1.9624,1.9637,1.967,1.9691,1.9716,1.9728,1.9724,1.9739,1.9719,1.976,1.9715,1.9771,1.9733,1.9748,1.9749,1.9752,1.9753,1.9701,1.9776,1.9908,1.992,1.9756,1.9755,1.9754,0,1.9615,1.9659,1.9708,1.9717,1.9725,1.9748,1.9753,1.9762,1.9778,1.9797,1.9807,1.9831,1.9844,1.9863,1.985,1.9819,1.9908,1.9862,1.9904,1.9905,1.9923,1.9921,2.0057,1.9936,1.9936,1.9936,1.9936,0,1.9719,1.9765,1.9748,1.9778,1.9827,1.9809,1.9859,1.986,1.9868,1.9897,1.9871,1.9899,1.9881,1.9908,1.9898,1.9945,1.9952,1.9949,1.9945,1.995,1.995,1.9957,1.995,1.9939,1.9939,1.9938,1.9937,0,1.9825,1.9815,1.9866,1.987,1.9871,1.9908,1.9911,1.9938,1.9934,1.9971,1.9979,1.9972,2.0002,1.9991,2.0024,2.0018,2.0077,2.0067,2.0072,2.0069,2.0111,2.0107,2.0254,2.0272,2.0142,2.0143,2.0145,0,1.9891,1.9925,1.9932,1.9949,1.9955,1.9984,2.0,1.9984,2.0001,2.0017,2.0043,2.0071,2.0091,2.0141,2.0139,2.0164,2.0152,2.0203,2.0156,2.0159,2.015,2.0147,2.015,2.0211,2.0213,2.0214,2.0215,0,2.0008,2.0002,2.0026,2.0048,2.0067,2.0084,2.0099,2.0115,2.0099,2.0121,2.015,2.0167,2.02,2.0227,2.0249,2.0254,2.0232,2.023,2.024,2.0244,2.0245,2.0243,2.0095,2.0226,2.0225,2.0224,2.0223,2.0223,2.0094,2.0122,2.0131,2.0158,2.0168,2.0182,2.0207,2.0206,2.0231,2.0255,2.0245,2.0279,2.029,2.0317,2.0325,2.0352,2.0332,2.0348,2.0352,2.0356,2.036,2.0243,2.0356,2.0356,2.0355,2.0355,2.0355,0,2.0208,2.0212,2.0238,2.0258,2.028,2.0258,2.0272,2.0292,2.0322,2.0334,2.0355,2.0389,2.0415,2.0416,2.044,2.0461,2.0452,2.0468,2.0465,2.0466,2.0377,2.0364,2.0475,2.0475,2.0475,2.0475,2.0475,2.0475,2.027,2.0315,2.031,2.036,2.0364,2.0397,2.0407,2.042,2.0429,2.0468,2.049,2.049,2.0497,2.0522,2.0545,2.0544,2.0553,2.0573,2.0569,2.0485,2.0473,2.0461,2.0449,2.0576,2.0576,2.0655,2.0656,2.0657]},{"header":{"parameterUnit":"m.s-1","parameterCategory":1,"la1":30.2991,"la2":30.254,"lo1":-89.0895,"lo2":-89.0444,"dy":0.0017,"dx":0.0017,"nx":28,"ny":28,"refTime":"2024-06-06T09:00:00:Z","depth":0,"parameterNumber":3,"parameterNumberName":"V-component_of_WINDS"},"data":[0,0,0,0,0,0,0,0,0,0,0,0,0,0,0,0,0,0,0,0,0,0,0,0,0,0,0,0,0,0,0,0,0,0,0,0,0,0,0,0,0,0,0,0,0,0,0,0,0,0,0,0,0,0,0,0,0,0,2.6951,2.6951,0,2.6944,2.6944,2.6944,2.6881,2.688,2.6878,2.6877,2.6869,2.687,2.6871,0,0,0,0,0,0,0,0,0,0,0,0,0,2.6911,2.6913,2.6951,2.6951,2.6951,2.6944,2.6944,2.6943,2.6881,2.688,2.6878,2.6876,2.6868,2.687,2.6871,0,0,0,0,0,0,0,0,0,0,0,0,0,2.6919,2.6913,2.6951,2.6919,2.6916,2.6944,2.6944,2.6943,2.6882,2.6879,2.6877,2.6875,2.6868,2.687,2.6871,2.6929,0,0,2.6877,2.6878,0,0,0,0,0,0,0,0,2.6919,2.692,2.6924,2.6921,2.6918,2.6911,2.6927,2.6939,2.6882,2.6895,2.6877,2.6874,2.6885,2.6885,2.6889,2.6929,2.6928,2.6877,2.6878,2.6879,2.688,0,0,0,0,0,0,0,2.6918,2.692,2.6948,2.6924,2.6921,2.6905,2.6904,2.6929,2.6903,2.6894,2.6889,2.6889,2.6883,2.6887,2.6888,2.6928,2.6877,2.6879,2.688,2.6881,2.7015,2.7017,0,0,0,0,0,0,2.6922,2.692,2.6948,2.6948,2.6913,2.6908,2.6906,2.6916,2.6902,2.6898,2.6891,2.6886,2.6885,2.6886,2.6887,2.6954,2.6879,2.6881,2.6882,2.7012,2.7015,2.7018,0,0,0,0,0,0,2.6921,2.6925,2.6949,2.6933,2.6935,2.6911,2.6922,2.6917,2.6921,2.69,2.6895,2.69,2.6883,2.6885,2.6919,2.6953,2.6882,2.6883,2.7009,2.7013,2.7017,2.7087,0,0,0,0,0,0,2.6921,2.6925,2.6947,2.6934,2.6936,2.6981,2.6924,2.6918,2.6924,2.6918,2.6908,2.6904,2.6881,2.6917,2.6921,2.6954,2.6885,2.7006,2.7011,2.7015,2.7082,2.7093,2.7102,0,0,0,0,0,2.6919,2.6967,2.6949,2.6952,2.6963,2.6983,2.6984,2.6957,2.6927,2.6949,2.6936,2.6904,2.6948,2.6921,2.6925,2.6959,2.7004,2.701,2.7015,2.7077,2.7091,2.7102,0,0,0,0,0,0,2.6985,2.6965,2.6944,2.6989,2.6988,2.6972,2.6999,2.6973,2.698,2.6974,2.694,2.6939,2.6978,2.6972,2.6941,2.7014,2.6971,2.6977,2.7016,2.7029,2.7039,2.704,2.6886,0,0,0,0,0,2.7005,2.7023,2.7005,2.7046,2.7047,2.7023,2.7031,2.7011,2.7008,2.7008,2.6997,2.6996,2.7009,2.7019,2.703,2.7081,2.7077,2.7106,2.7116,2.7125,2.7131,2.7157,2.717,2.7036,2.7036,2.7036,0,0,2.7046,2.7037,2.7051,2.7059,2.7056,2.7076,2.7023,2.7046,2.706,2.7011,2.7043,2.7035,2.7031,2.7074,2.7092,2.707,2.7167,2.7132,2.7139,2.714,2.7164,2.7177,2.7188,2.704,2.7039,2.7039,0,0,2.713,2.7126,2.716,2.7158,2.7154,2.7138,2.7146,2.7134,2.7127,2.7158,2.7122,2.7138,2.7162,2.7161,2.7164,2.7248,2.7219,2.7253,2.7306,2.7332,2.7343,2.7352,2.7382,2.7393,2.7259,2.7259,2.7259,0,2.7182,2.721,2.718,2.7206,2.7211,2.7167,2.7201,2.72,2.7201,2.7205,2.718,2.7209,2.7204,2.7246,2.7266,2.727,2.7278,2.7254,2.7344,2.7353,2.7361,2.7389,2.74,2.7263,2.7263,2.7262,2.7262,0,2.7273,2.7293,2.7321,2.7322,2.733,2.736,2.7335,2.7346,2.7325,2.7312,2.7344,2.7336,2.7345,2.7353,2.7333,2.7393,2.7379,2.735,2.7305,2.7378,2.7404,2.7415,2.7269,2.7267,2.7266,2.7265,0,0,2.7399,2.7383,2.7394,2.7394,2.7386,2.7401,2.7429,2.7438,2.7448,2.745,2.7472,2.7493,2.7466,2.7469,2.7448,2.7471,2.7538,2.7439,2.7438,2.7458,2.7603,2.7626,2.7639,2.7519,2.7521,2.7523,2.7604,0,2.748,2.7526,2.7501,2.7551,2.7569,2.7527,2.7551,2.7549,2.7538,2.7551,2.7538,2.7554,2.7517,2.7518,2.7539,2.7526,2.7567,2.752,2.754,2.7541,2.7542,2.7652,2.7676,2.7752,2.7614,2.7615,2.7616,0,2.7581,2.7587,2.7639,2.7627,2.7634,2.7656,2.7662,2.7676,2.7672,2.7662,2.7666,2.7639,2.7666,2.7622,2.7658,2.7626,2.7633,2.7628,2.763,2.7631,2.7583,2.7656,2.7776,2.7788,2.7632,2.7631,2.763,0,2.7667,2.7688,2.7722,2.7723,2.7711,2.7727,2.7723,2.7717,2.7724,2.773,2.7734,2.7742,2.7747,2.7754,2.773,2.7701,2.7769,2.7724,2.7761,2.7762,2.7778,2.7777,2.7901,2.7782,2.7782,2.7782,2.7782,0,2.776,2.7794,2.776,2.7781,2.7817,2.7787,2.7824,2.7815,2.7811,2.7829,2.7794,2.7811,2.7779,2.7794,2.7776,2.7808,2.7811,2.7803,2.7798,2.7806,2.7807,2.781,2.7804,2.7785,2.7784,2.7784,2.7783,0,2.7863,2.7842,2.7876,2.7862,2.7859,2.7886,2.7874,2.7892,2.7878,2.7902,2.7906,2.7883,2.7899,2.7876,2.7889,2.7877,2.7922,2.7908,2.7923,2.7919,2.7958,2.7955,2.8088,2.8104,2.7975,2.7976,2.7977,0,2.7924,2.7949,2.7937,2.7947,2.7945,2.7961,2.7968,2.7939,2.7948,2.7946,2.7965,2.7977,2.7986,2.8013,2.7998,2.8007,2.7994,2.804,2.7995,2.8003,2.7995,2.7994,2.7996,2.8049,2.8051,2.8052,2.8053,0,2.8034,2.8023,2.8034,2.8042,2.8051,2.8056,2.8058,2.8068,2.8038,2.805,2.8065,2.8072,2.8085,2.8098,2.8104,2.8099,2.8072,2.8067,2.8076,2.8085,2.8093,2.8089,2.7948,2.8064,2.8063,2.8062,2.8062,2.8061,2.8118,2.8138,2.8133,2.8147,2.8145,2.8148,2.8165,2.8153,2.8165,2.8174,2.8156,2.8176,2.8172,2.8177,2.8176,2.8191,2.8171,2.8184,2.8188,2.8191,2.8198,2.8091,2.8192,2.8192,2.8191,2.8191,2.8191,0,2.8226,2.8221,2.8234,2.8238,2.8249,2.8222,2.8223,2.8234,2.8252,2.825,2.826,2.8277,2.829,2.8276,2.8286,2.8301,2.8288,2.8304,2.8303,2.8302,2.8215,2.8206,2.8314,2.8314,2.8314,2.8314,2.8314,2.8314,2.8284,2.8316,2.8304,2.8336,2.833,2.8349,2.8352,2.8355,2.8353,2.8375,2.8385,2.8376,2.837,2.8379,2.8389,2.8384,2.839,2.841,2.8402,2.832,2.8308,2.8297,2.8288,2.8412,2.8412,2.8488,2.8488,2.8489]}]]